Terminal Aerodrome Forecast
Issued by NWS Albany, NY

Home | Current Version | Previous Version | Text Only | Print | Product List | Glossary On
Versions: 1 2 3 4 5 6 7 8 9 10 11 12 13 14 15 16 17 18 19 20 21 22
000
FTUS41 KALY 252156 AAA
TAFALB
TAF AMD
KALB 252156Z 2522/2618 18017G28KT P6SM VCSH BKN050 OVC250
      TEMPO 2522/2524 VRB20G35KT 2SM +SHRA BR BKN009 OVC015
     FM260000 28015G25KT 2SM RASN BR OVC009
     FM260200 29015G25KT P6SM VCSH OVC020
     FM260400 29015G25KT P6SM OVC035
     FM261300 29019G30KT P6SM BKN045=

USA.gov is the U.S. government's official web portal to all federal, state and local government web resources and services.